This is the latest recevied weather packets stored in our database for station/object KM4NDN. If no packets are shown the sender has not sent any weather packets the latest 10 day(s).
| Time | Temp. | Humidity | Pressure | Rain* | Wind** | Luminosity | Snow |
|---|---|---|---|---|---|---|---|
| 1777404254 | 18.33° C | 66% | 1010.5 hPa | 0 mm | - | 247 W/m² | - |
| 1777403950 | 18.89° C | 65% | 1010.4 hPa | 0 mm | - | 415 W/m² | - |
| 1777403650 | 18.33° C | 66% | 1010.5 hPa | 0 mm | - | 347 W/m² | - |
| 1777403350 | 18.89° C | 63% | 1010.4 hPa | 0 mm | - | 306 W/m² | - |
| 1777403050 | 18.89° C | 63% | 1010.4 hPa | 0 mm | - | 368 W/m² | - |
| 1777402746 | 18.33° C | 68% | 1010.4 hPa | 0 mm | - | 926 W/m² | - |
| 1777402441 | 18.33° C | 63% | 1010.7 hPa | 0 mm | - | 337 W/m² | - |
| 1777402140 | 18.33° C | 64% | 1010.5 hPa | 0 mm | - | 318 W/m² | - |
| 1777401835 | 18.33° C | 64% | 1010.5 hPa | 0 mm | - | 992 W/m² | - |
| 1777401534 | 18.33° C | 63% | 1010.5 hPa | 0 mm | - | 335 W/m² | - |
| 1777401230 | 18.33° C | 64% | 1010.5 hPa | 0 mm | - | 744 W/m² | - |
| 1777400926 | 18.33° C | 64% | 1010.3 hPa | 0 mm | - | 376 W/m² | - |
| 1777400622 | 18.33° C | 64% | 1010.5 hPa | 0 mm | - | 1086 W/m² | - |
| 1777400320 | 18.33° C | 64% | 1010.4 hPa | 0 mm | - | 591 W/m² | - |
| 1777400015 | 18.33° C | 64% | 1010.3 hPa | 0 mm | - | 391 W/m² | - |
| 1777399713 | 18.33° C | 64% | 1010.3 hPa | 0 mm | - | 359 W/m² | - |
| 1777399410 | 18.33° C | 66% | 1010.3 hPa | 0 mm | - | 471 W/m² | - |
| 1777399107 | 18.33° C | 67% | 1010.4 hPa | 0 mm | - | 356 W/m² | - |
| 1777398804 | 18.33° C | 66% | 1010.3 hPa | 0 mm | - | 367 W/m² | - |
| 1777398502 | 18.33° C | 65% | 1010.1 hPa | 0 mm | - | 267 W/m² | - |
| 1777398198 | 18.89° C | 64% | 1010.3 hPa | 0 mm | - | 325 W/m² | - |
| 1777397895 | 18.89° C | 66% | 1010.1 hPa | 0 mm | - | 1038 W/m² | - |
| 1777397590 | 18.89° C | 66% | 1009.9 hPa | 0 mm | - | 690 W/m² | - |
| 1777397287 | 18.89° C | 67% | 1009.9 hPa | 0 mm | - | 380 W/m² | - |
| 1777396984 | 18.89° C | 64% | 1009.9 hPa | 0 mm | - | 313 W/m² | - |
* Rain latest hour (hover to see other rain measurements)
** Current wind speed in m/s (hover to see current wind gust speed)